Cando, ND

5:33 AM CDT on May 26, 2018 (GMT -0500)
Cando

Weather History for K9D7 - February, 2014

Change the Weather History Date:

Sunday, February 16, 2014

  Actual Average (WUND) Record (WUND)
Temperature  
Mean Temperature -2 °F -  
Max Temperature 15 °F - - (-1)
Min Temperature -18 °F - - (-1)
Degree Days  
Heating Degree Days 66    
Moisture  
Dew Point -3 °F    
Average Humidity 85    
Maximum Humidity 93    
Minimum Humidity 76    
Precipitation  
Precipitation 0.03 in - - ()
Sea Level Pressure  
Sea Level Pressure 29.87 in    
Wind  
Wind Speed 9 mph (SSE)    
Max Wind Speed 26 mph    
Max Gust Speed 33 mph    
Visibility 6 miles    
Events Snow    
Averages and records for this station are not official NWS values.
T = Trace of Precipitation, MM = Missing Value Source: NWS Daily Summary

Daily Weather History Graph

Daily Weather History Graph

Search for Another Location

Airport or City:

Astronomy

Feb. 16, 2014 Rise Set
Actual Time 7:42 AM CST 6:00 PM CST
Civil Twilight 7:10 AM CST 6:32 PM CST
Nautical Twilight 6:33 AM CST 7:09 PM CST
Astronomical Twilight 5:57 AM CST 7:45 PM CST
Moon 8:12 PM CST (2/16) 8:01 AM CST (2/16)
Length of Visible Light 11h 22m
Length of Day
10h 17m
Full, 97% of the Moon is Illuminated
Feb 16
Full
Feb 22
Last Quarter
Mar 1
New
Mar 8
First Quarter
Mar 16
Full

Hourly Weather History & Observations

Time (CST) Temp. Windchill Dew Point Humidity Pressure Visibility Wind Dir Wind Speed Gust Speed Precip Events Conditions
12:15 AM -11.2 °F - -14.8 °F 84% 30.12 in 10.0 mi Calm Calm - N/A   Clear
12:35 AM -11.2 °F - -16.6 °F 77% 30.12 in 10.0 mi Calm Calm - N/A   Clear
12:55 AM -13.0 °F - -18.4 °F 77% 30.12 in 10.0 mi Calm Calm - N/A   Clear
1:15 AM -13.0 °F -22.7 °F -18.4 °F 77% 30.12 in 10.0 mi NW 3.5 mph - N/A   Clear
1:35 AM -13.0 °F -22.7 °F -18.4 °F 77% 30.13 in 10.0 mi West 3.5 mph - N/A   Clear
1:55 AM -16.6 °F -31.3 °F -20.2 °F 84% 30.13 in 10.0 mi West 5.8 mph - N/A   Clear
2:15 AM -14.8 °F - -20.2 °F 77% 30.11 in 10.0 mi Calm Calm - N/A   Clear
2:35 AM -16.6 °F - -20.2 °F 84% 30.10 in 10.0 mi Calm Calm - N/A   Clear
2:55 AM -16.6 °F - -20.2 °F 84% 30.10 in 10.0 mi Calm Calm - N/A   Clear
3:15 AM -14.8 °F - -18.4 °F 84% 30.09 in 10.0 mi Calm Calm - N/A   Clear
3:35 AM -14.8 °F -24.8 °F -20.2 °F 77% 30.07 in 10.0 mi NE 3.5 mph - N/A   Clear
3:55 AM -16.6 °F - -20.2 °F 84% 30.06 in 10.0 mi Calm Calm - N/A   Clear
4:15 AM -16.6 °F -26.8 °F -22.0 °F 76% 30.05 in 10.0 mi ESE 3.5 mph - N/A   Clear
4:35 AM -18.4 °F - -22.0 °F 84% 30.05 in 10.0 mi Calm Calm - N/A   Clear
4:55 AM -18.4 °F -28.9 °F -22.0 °F 84% 30.05 in 10.0 mi SE 3.5 mph - N/A   Clear
5:15 AM -18.4 °F -33.4 °F -23.8 °F 76% 30.05 in 10.0 mi ESE 5.8 mph - N/A   Clear
5:35 AM -18.4 °F -35.1 °F -22.0 °F 84% 30.03 in 10.0 mi ESE 6.9 mph - N/A   Clear
5:55 AM -16.6 °F -35.7 °F -20.2 °F 84% 30.03 in 10.0 mi ESE 9.2 mph - N/A   Clear
6:15 AM -16.6 °F -34.4 °F -20.2 °F 84% 30.03 in 10.0 mi SE 8.1 mph - N/A   Clear
6:35 AM -16.6 °F -35.7 °F -20.2 °F 84% 30.03 in 10.0 mi SE 9.2 mph - N/A   Clear
6:55 AM -16.6 °F -32.9 °F -22.0 °F 76% 30.03 in 10.0 mi SE 6.9 mph - N/A   Clear
7:15 AM -16.6 °F -34.4 °F -20.2 °F 84% 30.02 in 10.0 mi SE 8.1 mph - N/A   Clear
7:35 AM -13.0 °F -31.3 °F -18.4 °F 77% 30.01 in 8.0 mi SE 9.2 mph - N/A   Clear
7:55 AM -13.0 °F -32.4 °F -16.6 °F 84% 29.99 in 8.0 mi SE 10.4 mph - N/A   Clear
8:15 AM -11.2 °F -30.1 °F -16.6 °F 77% 29.99 in 7.0 mi SE 10.4 mph - N/A   Clear
8:35 AM -9.4 °F -29.8 °F -13.0 °F 84% 29.99 in 7.0 mi SE 12.7 mph - N/A   Clear
8:55 AM -7.6 °F -27.5 °F -11.2 °F 84% 29.98 in 7.0 mi SE 12.7 mph - N/A   Partly Cloudy
9:15 AM -4.0 °F -23.7 °F -7.6 °F 85% 29.96 in 5.0 mi SE 13.8 mph - N/A   Scattered Clouds
9:35 AM -0.4 °F -20.5 °F -4.0 °F 85% 29.95 in 1.2 mi SSE 16.1 mph 21.9 mph N/A   Overcast
9:55 AM -0.4 °F -22.8 °F -2.2 °F 92% 29.94 in - SSE 20.7 mph - N/A   Overcast
10:15 AM 1.4 °F -18.2 °F -2.2 °F 85% 29.94 in - SSE 16.1 mph - N/A   Overcast
10:35 AM 1.4 °F -18.8 °F -0.4 °F 92% 29.93 in - SSE 17.3 mph - N/A   Overcast
10:55 AM 3.2 °F -16.5 °F -0.4 °F 85% 29.89 in 2.5 mi SSE 17.3 mph - N/A   Overcast
11:15 AM 5.0 °F -14.7 °F 1.4 °F 85% 29.89 in 1.5 mi SSE 18.4 mph 24.2 mph N/A   Overcast
11:35 AM 6.8 °F -12.9 °F 3.2 °F 85% 29.86 in 1.0 mi SSE 19.6 mph 29.9 mph N/A   Overcast
11:55 AM 6.8 °F -13.8 °F 5.0 °F 92% 29.85 in 1.2 mi SSE 21.9 mph 28.8 mph N/A   Overcast
12:15 PM 6.8 °F -13.4 °F 5.0 °F 92% 29.85 in 1.5 mi SSE 20.7 mph - N/A   Overcast
12:35 PM 6.8 °F -13.4 °F 5.0 °F 92% 29.84 in 1.8 mi SSE 20.7 mph 26.5 mph N/A   Overcast
12:55 PM 8.6 °F -11.0 °F 5.0 °F 85% 29.82 in 3.0 mi SSE 20.7 mph 28.8 mph N/A   Overcast
1:15 PM 8.6 °F -13.1 °F 5.0 °F 85% 29.80 in 2.5 mi SE 26.5 mph 33.4 mph N/A   Overcast
1:35 PM 10.4 °F -9.5 °F 6.8 °F 85% 29.80 in 3.0 mi SSE 23.0 mph 27.6 mph N/A   Overcast
1:55 PM 10.4 °F -9.9 °F 6.8 °F 85% 29.78 in 3.0 mi SSE 24.2 mph 32.2 mph N/A   Overcast
2:15 PM 10.4 °F -8.6 °F 6.8 °F 85% 29.78 in 5.0 mi SE 20.7 mph 29.9 mph N/A   Overcast
2:35 PM 10.4 °F -9.1 °F 6.8 °F 85% 29.76 in 7.0 mi SE 21.9 mph - N/A   Overcast
2:55 PM 10.4 °F -9.9 °F 6.8 °F 85% 29.74 in 6.0 mi SE 24.2 mph 27.6 mph N/A   Overcast
3:15 PM 10.4 °F -10.3 °F 6.8 °F 85% 29.72 in 4.0 mi SE 25.3 mph 31.1 mph N/A   Overcast
3:35 PM 10.4 °F -10.7 °F 6.8 °F 85% 29.72 in 4.0 mi SE 26.5 mph 33.4 mph N/A   Overcast
3:55 PM 10.4 °F -10.7 °F 6.8 °F 85% 29.71 in 5.0 mi SE 26.5 mph 31.1 mph N/A   Overcast
4:15 PM 10.4 °F -9.5 °F 8.6 °F 92% 29.71 in 7.0 mi SSE 23.0 mph - N/A   Overcast
4:35 PM 12.2 °F -6.7 °F 8.6 °F 85% 29.71 in 9.0 mi SSE 21.9 mph 28.8 mph N/A   Overcast
4:55 PM 12.2 °F -5.8 °F 8.6 °F 85% 29.71 in 8.0 mi SSE 19.6 mph 28.8 mph N/A   Overcast
5:15 PM 12.2 °F -7.5 °F 8.6 °F 85% 29.70 in 4.0 mi SE 24.2 mph 27.6 mph N/A   Overcast
5:35 PM 14.0 °F -3.9 °F 8.6 °F 79% 29.71 in 3.0 mi SSE 20.7 mph - N/A   Overcast
5:55 PM 14.0 °F -3.9 °F 8.6 °F 79% 29.72 in 7.0 mi SSE 20.7 mph 27.6 mph N/A   Overcast
6:15 PM 14.0 °F -3.4 °F 10.4 °F 86% 29.72 in 5.0 mi SSE 19.6 mph 25.3 mph N/A   Overcast
6:35 PM 14.0 °F -0.2 °F 10.4 °F 86% 29.73 in 6.0 mi SSE 12.7 mph - N/A   Overcast
6:55 PM 14.0 °F -3.0 °F 10.4 °F 86% 29.71 in 7.0 mi SSE 18.4 mph - N/A   Overcast
7:15 PM 14.0 °F -3.0 °F 10.4 °F 86% 29.71 in 10.0 mi SSE 18.4 mph - N/A   Overcast
7:35 PM 14.0 °F -2.5 °F 10.4 °F 86% 29.70 in 10.0 mi SSE 17.3 mph 23.0 mph N/A   Overcast
7:55 PM 14.0 °F -2.0 °F 10.4 °F 86% 29.70 in 10.0 mi SSE 16.1 mph - N/A   Overcast
8:15 PM 14.0 °F -2.5 °F 10.4 °F 86% 29.70 in 2.0 mi SSE 17.3 mph - N/A Snow Light Snow
8:35 PM 14.0 °F -2.0 °F 10.4 °F 86% 29.70 in 1.2 mi SSE 16.1 mph - 0.01 in Snow Light Snow
8:55 PM 14.0 °F -1.4 °F 12.2 °F 93% 29.69 in 0.5 mi SSE 15.0 mph - 0.03 in Snow Snow
9:15 PM 14.0 °F -2.0 °F 12.2 °F 93% 29.69 in 4.0 mi SSE 16.1 mph - N/A Snow Light Snow
9:35 PM 14.0 °F -1.4 °F 12.2 °F 93% 29.68 in 5.0 mi SSE 15.0 mph - N/A Snow Light Snow
9:55 PM 14.0 °F -1.4 °F 12.2 °F 93% 29.67 in 2.5 mi SSE 15.0 mph - N/A Snow Light Snow
10:15 PM 15.8 °F 2.1 °F 12.2 °F 86% 29.66 in 1.8 mi SSE 12.7 mph - N/A Snow Light Snow
10:35 PM 15.8 °F 0.9 °F 14.0 °F 93% 29.65 in 4.0 mi SSE 15.0 mph 18.4 mph N/A   Overcast
10:55 PM 15.8 °F 0.9 °F 14.0 °F 93% 29.64 in 2.0 mi SSE 15.0 mph - N/A Snow Light Snow
11:15 PM 15.8 °F 0.3 °F 14.0 °F 93% 29.64 in 3.0 mi SSE 16.1 mph - N/A   Overcast
11:35 PM 15.8 °F 0.9 °F 14.0 °F 93% 29.64 in 6.0 mi South 15.0 mph - N/A   Overcast
11:55 PM 15.8 °F 0.9 °F 14.0 °F 93% 29.61 in 8.0 mi SSE 15.0 mph - N/A   Overcast